Location: C�mpuri de-Sus
(45.9500°N, 22.5500°E)
Time: 18:09:36
(UTC+00:00)

Cosmos 839 Rocket - Pass Details

Date: 02 December 2023
Orbit: 960 x 2093 km, 65.9° (Epoch: 20 February)

Event Time Altitude Azimuth Distance (km) Brightness Sun altitude
Exits shadow 02:53:41 33° 224° (SW) 3,060 6.2 -30.2°
Maximum altitude 03:00:26 79° 306° (NW) 2,125 5.5 -29.0°
Drops below altitude 10° 03:12:25 10° 35° (NE) 4,401 7.7 -26.9°
Sets 03:15:37 0° 37° (NE) 5,302 8.2 -26.4°
